FW6463 Weather Reports


Display with metric or nautical units.
time (UTC)temp
F
wind
direction
speed
MPH
gust
MPH
rain 1hr
in
rain 24hr
in
rain mn
in
humidity
%
barometer
mb
20260903175532 82 224 6.0 10.0 0.00 0.32 0.32 84 1019.2
20260903174518 81 226 6.0 9.0 0.00 0.32 0.32 86 1019.4
20260903173524 81 242 7.0 9.0 0.00 0.32 0.32 86 1019.5
20260903172528 81 244 7.0 11.0 0.00 0.32 0.32 87 1019.5
20260903171533 81 223 7.0 11.0 0.00 0.34 0.32 85 1019.5
20260903170520 80 255 7.0 11.0 0.00 0.34 0.32 87 1019.6
20260903165525 80 232 7.0 12.0 0.00 0.36 0.32 89 1019.9
20260903164530 79 206 5.0 9.0 0.00 0.37 0.32 90 1020.0
20260903163517 78 260 5.0 6.0 0.00 0.38 0.32 93 1020.1
20260903162602 77 206 6.0 9.0 0.00 0.40 0.32 93 1020.4
20260903161547 78 261 7.0 12.0 0.00 0.42 0.32 93 1020.6
20260903160532 78 276 6.0 15.0 0.00 0.45 0.32 94 1020.6
20260903155519 76 217 8.0 11.0 0.00 0.50 0.32 97 1020.9
20260903154524 77 266 9.0 13.0 0.02 0.64 0.32 97 1021.5
20260903153528 75 249 7.0 11.0 0.02 0.64 0.32 99 1020.7
20260903152516 75 255 5.0 7.0 0.04 0.64 0.32 99 1020.6
20260903151541 74 260 3.0 5.0 0.04 0.64 0.32 99 1020.4
20260903150526 72 165 1.0 2.0 0.06 0.64 0.32 99 1020.2
20260903145530 71 192 5.0 8.0 0.08 0.64 0.32 99 1020.4
20260903144538 0 0.0 0.0 0.06 0.62 0.30 1021.0
20260903143522 0 0.0 0.0 0.06 0.62 0.30 1022.0
20260903142528 71 3.0 3.0 0.04 0.60 0.28 99 1022.6
20260903141533 71 184 2.0 3.0 0.04 0.60 0.28 99 1022.9
20260903140520 72 310 5.0 9.0 0.02 0.58 0.26 99 1023.2
20260903135524 72 337 7.0 13.0 0.00 0.56 0.24 99 1020.9
20260903134530 73 266 4.0 6.0 0.00 0.56 0.24 99 1020.8
20260903133536 73 266 5.0 7.0 0.00 0.56 0.24 99 1020.5
20260903132521 73 239 4.0 7.0 0.00 0.56 0.24 99 1020.8
20260903131527 73 250 5.0 9.0 0.00 0.56 0.24 99 1020.8
20260903130526 72 287 2.0 3.0 0.00 0.56 0.24 99 1020.7
20260903125519 72 211 3.0 6.0 0.00 0.56 0.24 99 1021.0
20260903124524 71 240 6.0 10.0 0.00 0.56 0.24 99 1021.0
20260903123523 71 246 2.0 4.0 0.00 0.56 0.24 99 1020.8
20260903122516 71 284 1.0 3.0 0.01 0.56 0.24 99 1020.8
20260903121521 70 174 2.0 3.0 0.02 0.56 0.24 99 1020.9
20260903120520 69 248 2.0 3.0 0.02 0.56 0.24 99 1021.1
20260903115519 0 256 2.0 2.0 0.03 0.56 0.24 1021.1
20260903114517 69 238 3.0 4.0 0.04 0.56 0.24 99 1020.9
20260903113517 68 269 2.0 3.0 0.05 0.56 0.24 99 1020.6
20260903112516 68 187 1.0 3.0 0.05 0.55 0.23 99 1020.5
20260903111533 68 248 2.0 4.0 0.04 0.54 0.22 99 1020.3
20260903110540 68 275 3.0 4.0 0.04 0.54 0.22 99 1020.4
20260903105524 68 139 3.0 4.0 0.03 0.53 0.21 99 1021.3
20260903104530 68 158 0.0 3.0 0.02 0.52 0.20 99 1022.2
20260903103517 68 251 2.0 3.0 0.17 0.51 0.19 99 1021.9
20260903102521 68 0.0 0.0 0.17 0.50 0.18 99 1021.8
20260903101526 68 197 1.0 2.0 0.17 0.50 0.18 99 1021.5
20260903100551 69 207 1.0 3.0 0.18 0.50 0.18 99 1021.5
20260903095539 69 138 1.0 3.0 0.18 0.50 0.18 99 1022.4
20260903094524 69 0.0 0.0 0.18 0.50 0.18 99 1022.9
20260903093549 69 287 3.0 4.0 0.02 0.34 0.02 99 1021.7
20260903092536 69 154 2.0 4.0 0.01 0.33 0.01 99 1021.7
20260903091521 69 183 3.0 4.0 0.01 0.33 0.01 99 1022.0
20260903090525 70 72 2.0 4.0 0.00 0.32 0.00 99 1022.0
20260903085531 70 331 4.0 7.0 0.00 0.32 0.00 99 1021.3
20260903084518 70 173 2.0 4.0 0.00 0.32 0.00 99 1021.3
20260903083522 70 178 3.0 4.0 0.00 0.32 0.00 99 1021.7
20260903082528 69 152 1.0 3.0 0.00 0.32 0.00 99 1021.4
20260903081533 69 178 2.0 4.0 0.00 0.32 0.00 99 1021.4
20260903080540 69 258 2.0 5.0 0.00 0.32 0.00 99 1021.3
20260903075524 69 154 2.0 5.0 0.00 0.32 0.00 99 1021.4
20260903074530 69 139 3.0 4.0 0.00 0.32 0.00 99 1021.1
20260903073517 70 263 4.0 7.0 0.00 0.32 0.00 99 1021.4
20260903072522 69 317 3.0 5.0 0.00 0.32 0.00 99 1020.4
20260903071527 69 0.0 0.0 0.00 0.32 0.00 99 1020.2
20260903070532 69 0.0 0.0 0.00 0.32 0.00 99 1020.1
20260903065539 69 180 0.0 2.0 0.00 0.32 0.00 99 1020.1
20260903064524 69 191 1.0 2.0 0.00 0.32 0.00 99 1020.5
20260903063529 69 0.0 0.0 0.00 0.32 0.00 99 1020.3
20260903062516 69 0.0 0.0 0.00 0.32 0.00 99 1020.5
20260903061521 69 0.0 0.0 0.00 0.32 0.00 99 1020.5
20260903060526 69 0.0 0.0 0.00 0.32 0.00 99 1020.5
20260903055531 69 0.0 1.0 0.00 0.32 0.00 99 1020.5
20260903054518 69 0.0 0.0 0.00 0.32 0.00 99 1020.5
20260903053524 69 234 1.0 2.0 0.00 0.32 0.00 99 1020.6
20260903052529 69 308 1.0 4.0 0.00 0.32 0.00 99 1020.6
20260903051515 69 295 1.0 2.0 0.00 0.32 0.00 99 1020.6
20260903050520 69 45 0.0 1.0 0.00 0.32 0.00 99 1020.5
20260903045546 69 189 2.0 4.0 0.00 0.32 0.00 99 1020.9
20260903044530 69 0.0 0.0 0.00 0.32 0.00 99 1020.6
20260903043517 69 0.0 1.0 0.00 0.32 0.00 99 1020.4
20260903042522 69 0.0 0.0 0.00 0.32 0.00 99 1020.6
20260903041527 69 0.0 0.0 0.00 0.32 0.00 99 1020.7
20260903040532 69 158 0.0 2.0 0.00 0.32 0.00 99 1020.8
20260903035519 69 0.0 0.0 0.00 0.32 0.32 99 1020.9
20260903034524 69 0.0 0.0 0.00 0.32 0.32 99 1020.7
20260903033548 70 0.0 0.0 0.00 0.32 0.32 99 1020.8
20260903032516 70 0.0 0.0 0.00 0.32 0.32 99 1021.1
20260903031520 70 0.0 0.0 0.00 0.32 0.32 99 1021.0
20260903030525 70 0.0 0.0 0.00 0.32 0.32 99 1020.8
20260903025524 70 180 0.0 2.0 0.00 0.32 0.32 99 1021.1
20260903024517 70 0.0 0.0 0.00 0.32 0.32 99 1021.0
20260903023522 70 0.0 0.0 0.00 0.32 0.32 99 1020.6
20260903022521 70 0.0 0.0 0.00 0.32 0.32 99 1020.4
20260903021520 70 0.0 0.0 0.00 0.32 0.32 99 1020.4
20260903020559 71 0.0 0.0 0.00 0.32 0.32 99 1020.4
20260903015538 71 0.0 0.0 0.00 0.32 0.32 99 1020.5
20260903014517 71 135 0.0 2.0 0.00 0.32 0.32 99 1020.9
20260903013516 71 163 1.0 2.0 0.00 0.32 0.32 99 1020.8
20260903012521 71 0.0 0.0 0.00 0.32 0.32 99 1020.7
20260903011526 71 0.0 0.0 0.00 0.32 0.32 99 1020.7
20260903010531 72 0.0 1.0 0.00 0.32 0.32 99 1020.6
20260903005558 72 0.0 0.0 0.00 0.32 0.32 99 1020.3
20260903004523 73 0.0 0.0 0.00 0.32 0.32 99 1020.2
20260903003548 73 127 1.0 2.0 0.00 0.32 0.32 99 1020.5
20260903002553 73 0.0 0.0 0.00 0.32 0.32 99 1020.7
20260903001520 74 0.0 1.0 0.00 0.32 0.32 99 1020.8
20260903000524 74 188 0.0 2.0 0.00 0.32 0.32 99 1020.8
20260902235529 75 0.0 0.0 0.00 0.32 0.32 99 1020.6
20260902234517 76 315 0.0 2.0 0.00 0.32 0.32 99 1020.8
20260902233521 76 0.0 0.0 0.00 0.32 0.32 99 1021.0
20260902232525 76 0.0 0.0 0.00 0.32 0.32 99 1021.0
20260902231611 76 0.0 0.0 0.00 0.32 0.32 99 1020.9
20260902230538 76 151 2.0 4.0 0.00 0.32 0.32 99 1020.7
20260902225522 77 0.0 0.0 0.00 0.32 0.32 99 1020.8
20260902224527 78 0.0 0.0 0.00 0.32 0.32 98 1020.6
20260902223553 79 0.0 0.0 0.00 0.32 0.32 96 1020.5
20260902222519 80 0.0 0.0 0.00 0.32 0.32 94 1020.7
20260902221524 82 0.0 0.0 0.00 0.32 0.32 90 1020.7
20260902220530 84 0.0 0.0 0.00 0.32 0.32 87 1020.7
20260902215537 87 0.0 0.0 0.00 0.32 0.32 82 1020.9
20260902214521 87 279 1.0 2.0 0.00 0.32 0.32 82 1021.0
20260902213526 83 208 1.0 3.0 0.00 0.32 0.32 89 1021.0
20260902212531 83 318 1.0 2.0 0.00 0.32 0.32 89 1020.9
20260902211519 82 198 1.0 2.0 0.00 0.32 0.32 88 1020.9
20260902210523 82 285 2.0 2.0 0.00 0.32 0.32 89 1021.0
20260902205548 0 248 3.0 3.0 0.00 0.32 0.32 1021.3
20260902204533 81 270 2.0 3.0 0.00 0.32 0.32 90 1021.5
20260902203520 80 294 2.0 3.0 0.00 0.32 0.32 93 1021.7
20260902202525 80 270 0.0 1.0 0.00 0.32 0.32 92 1021.4
20260902201530 81 1.0 2.0 0.00 0.32 0.32 96 1021.3
20260902200516 82 279 2.0 4.0 0.00 0.32 0.32 89 1021.2
20260902195522 82 100 2.0 4.0 0.00 0.32 0.32 89 1021.1
20260902194526 82 307 2.0 3.0 0.00 0.32 0.32 89 1021.3
20260902193531 81 255 2.0 3.0 0.00 0.32 0.32 88 1021.5
20260902192539 81 285 3.0 4.0 0.00 0.32 0.32 90 1021.6
20260902191523 81 264 3.0 5.0 0.00 0.32 0.32 89 1021.7
20260902190529 80 301 2.0 4.0 0.00 0.32 0.32 89 1021.7
20260902185515 79 257 2.0 3.0 0.00 0.32 0.32 92 1021.7
20260902184520 78 233 1.0 3.0 0.00 0.32 0.32 92 1021.7
20260902183525 76 204 1.0 2.0 0.00 0.32 0.32 97 1021.9
20260902182611 75 162 1.0 3.0 0.00 0.32 0.32 99 1022.1
20260902181517 73 194 1.0 3.0 0.02 0.32 0.32 99 1022.2
20260902180522 73 0.0 0.0 0.02 0.32 0.32 99 1022.4